Weather in Yelovoye

Russia / Krasnoyarsk Krai     56°08′26″N   92°32′31″E
temp.,
°C
wind,
m/s
gust,
m/s
humid.,
%
clouds,
%
prec.,
mm/h
press.,
hPa
HPBL,
m
1 march, mon
mon101:00−25s118995 0.0 103220
04:00−26se119122 0.0 103020
07:00−26ese129447 0.0 102721
10:00−22ese2393100 0.0 1024139
13:00−18e3496100 0.3 1020275
16:00−16e3594100 0.4 1017347
19:00−15ene3797100 1.0 1016343
22:00−16e3796100 0.7 1015346
2 march, tue
tue201:00−17ene3797100 0.9 1014288
04:00−18ene3797100 0.4 1013322
07:00−19ene4898100 0.7 1015334
10:00−19ene3797100 0.2 1016317
13:00−17ene4694100 0.3 1017426
16:00−17ene3595100 0.1 1017404
19:00−19ene3698100 0.3 1019234
22:00−20e2799100 0.1 1019302
3 march, wed
wed301:00−22e24100100 0.2 1019114
04:00−24e229999 0.0 101961
07:00−27e229990 0.0 102128
10:00−23ese369797 0.0 1022249
13:00−20ese359598 0.0 1022369
16:00−18ese3493100 0.0 1023385
19:00−22ese229899 0.0 102537
22:00−23ese2297100 0.0 102644
4 march, thu
thu401:00−21se2399100 0.1 102689
04:00−19se229998 0.1 102772
07:00−18sse229898 0.2 102834
10:00−13se239688 0.0 1028121
13:00−7sse358888 0.1 1027584
16:00−5ssw477996 0.0 1025939
19:00−9s248897 0.0 102587
22:00−8s31187100 0.0 1023364
5 march, fri
fri501:00−8ssw31287100 0.0 1022356
04:00−6ssw41381100 0.0 1020453
07:00−7sw41574100 0.0 1019517
10:00−4ssw51275100 0.0 1018494
13:00−1ssw487667 0.0 1016648
16:00−1sse2583100 0.0 1013426
19:00−3ssw1289100 0.0 101324
22:00−3sw51493100 0.6 1015912